STARLINK-38099, 69987

Orbit data source: Space-Track

STARLINK-38099, 69987 is a payload satellite owned by SpaceX/Seattle (US) in SSO that was launched on Sat, 11 Jul 2026 UTC via an FALCON 9 launch vehicle from the Air Force Western Test Range (AFWTR). Payload-class satellites include a variety of spacecraft equipped with specific instruments for various scientific and technological missions. These include communications satellites like Starlink; space stations such as the ISS; scientific satellites like the Hubble; Earth observation satellites from companies like Planet Labs, Umbra, and HawkEye 360; GPS; miniature CubeSats for education and research; and military/defense satellites.

Loading next visibility...
Identifier
69987, 2026-159N
Orbit
SSO
Country
Flag of USUS
Related business
Manufacturer
SpaceX/Seattle
Mission
Operational spacecraft
Bus & Motor
STARLINK V2MO, Unknown motor
Mass
575 kg wet, ~530 kg dry
Launch date (UTC)
2026-07-11 (1 month ago)
Launch vehicle
FALCON 9
Launch site
Air Force Western Test Range (AFWTR)
Object type
Payload
Rocket body
Debris
Shape & HBR
BOX + PAN, 17.7 m
Radar Cross Section
Large (>1 m²)

Expand to show TLE details & history
Last TLE update: 13 hours ago

TLE from 13 hours ago
0 STARLINK-38099
1 69987U 26159N   26228.55982310  .00091935  00000-0  61031-3 0  9996
2 69987  97.2841  68.9087 0001488  82.8453 277.2981 15.75201718  6965
Epoch: 2026-08-16T13:26Z
TLE epoch observation values (Epoch: 2026-08-16T13:26:08.715Z)
Latitude
-0.00009°
Longitude
-97.5822°
Altitude
347.099 km
Speed
7.701 km/s
True Right ascension
04h 35m 38s
True Declination
0° 00' 00"
Sunlit
Object was in daylight at epoch
Visualization orbit readout
Latitude
Unknown
Longitude
Unknown
Altitude
Unknown
Speed
Unknown
Apparent Right ascension
Unknown
Apparent Declination
Unknown
Sunlit
N/A
Visualization observer readout
Local Sidereal Time
16:48:57
Azimuth
Unknown
Elevation
Unknown
Doppler factor
Unknown
Orbital elements
Apogee altitude
341.944 km
Perigee altitude
339.945 km
Semi-major axis
6,719.082 km
Eccentricity
0.00015
Inclination
97.2841°
RAAN
68.9087°
Arg. of periapsis
82.8453°
True anomaly
277.28119°
Mean anomaly
277.2981°
Eccentric anomaly
277.28964°
Mean motion
3.94074 °/min
Orbital period
91.35 mins
BSTAR
0.00061031
Loading maneuver chart data...
Computing Atmospheric mass density...
Loading historical data...
Loading historical data...
Loading historical data...
Loading historical data...
Loading historical data...
Loading historical data...
Loading historical data...

Documentation

Showing up to 5 results
|